Miscellaneous Local Product
Issued by NWS North Platte, NE

Home | Current Version | Previous Version | Graphics & Text | Print | Product List | Glossary On
Versions: 1 2 3 4 5 6 7 8 9 10 11 12 13 14 15 16 17 18 19 20 21 22 23 24 25 26 27 28 29 30 31 32 33 34 35 36 37 38 39 40 41 42 43 44 45 46 47 48 49 50
000
AXUS43 KLBF 180810
MISLBF


WESTERN AND NORTH CENTRAL NEBRASKA HOURLY WEATHER ROUNDUP
NATIONAL WEATHER SERVICE NORTH PLATTE NE
300 AM CDT FRI AUG 18 2017

NOTE: "FAIR" INDICATES FEW OR NO CLOUDS BELOW 12,000 FEET WITH NO
SIGNIFICANT WEATHER AND/OR OBSTRUCTIONS TO VISIBILITY.

NOTE: STATIONS NOT REPORTING VARIABLES SUCH AS SKY/WEATHER OR
PRESSURE ARE PROVIDED BY RAWS AND APRS NETWORKS AND ARE NOT UNDER
NATIONAL WEATHER SERVICE QUALITY CONTROL.

...OBSERVATIONS IN AND NEAR THE EASTERN PANHANDLE OF NEBRASKA...

CITY           SKY/WX    TMP DP  RH WIND       PRES   REMARKS
PINE RIDGE     CLEAR     52  51  97 CALM      30.04R
GORDON         FAIR      52  48  88 W6        30.05R
CHADRON        CLEAR     52  49  89 SW7       30.05R
ALLIANCE       CLEAR     50  48  93 MISG      30.08R
SIDNEY         CLOUDY    55  50  83 NW12      30.12R
CRESCENT LAKE    N/A     57  52  84 W5          N/A
$$

...OBSERVATIONS IN NORTHERN NEBRASKA AND FAR SOUTHERN SOUTH DAKOTA...

CITY           SKY/WX    TMP DP  RH WIND       PRES   REMARKS
WINNER         FAIR      62  59  90 S8        29.92F
VALENTINE      CLEAR     62  56  80 SW12      29.96S
THEDFORD       CLEAR     56  55  97 W6        30.02R
AINSWORTH      CLEAR     60  59  98 SW12      29.97R
O`NEILL        CLOUDY    63  61  94 S5        29.92S
ORD            CLOUDY    64  56  75 S6        29.91F
BROKEN BOW     CLOUDY    64  57  78 SE5       29.98R
VALENTINE NWR    N/A     58  56  95 W6          N/A
HALSEY           N/A     58  58  99 CALM        N/A
BUTTE            N/A     60  58  92 SW3         N/A
CHAMBERS         N/A     62  59  90 CALM        N/A
EWING            N/A     62  60  95 S3          N/A
$$

...OBSERVATIONS IN SOUTHWEST NEBRASKA AND FAR NORTHEAST COLORADO...

CITY           SKY/WX    TMP DP  RH WIND       PRES   REMARKS
HOLYOKE        FAIR      63  54  72 NW7       30.04F
IMPERIAL       PTCLDY    62  57  83 N7        30.02S
OGALLALA       PTCLDY    62  57  84 CALM      30.03S
NORTH PLATTE   CLOUDY    63  58  83 CALM      30.02R
MCCOOK         CLOUDY    69  56  62 SW10      29.96S
LEXINGTON      LGT RAIN  66  57  73 NE10      30.01R
STAPLETON        N/A     60  57  89 CALM        N/A
GOTHENBURG       N/A     68  53  58 NW6         N/A
CALLAWAY         N/A     63  59  86 SE3         N/A
$$

...OBSERVATIONS IN CENTRAL LINCOLN COUNTY AREA...

CITY           SKY/WX    TMP DP  RH WIND       PRES   REMARKS
N.P. AIRPORT   CLOUDY    63  58  83 CALM      30.02R
N.P. SOUTHEAST   N/A     65  56  73 CALM        N/A
N.P. HILLCREST   N/A     64  56  76 CALM        N/A
$$

...SOME OBSERVATIONS FROM AROUND THE REGION...

CITY           SKY/WX    TMP DP  RH WIND       PRES   REMARKS
DENVER         CLOUDY    63  42  46 W5        30.15S
LIMON          CLOUDY    51  49  92 N7        30.14F
ASPEN          CLOUDY    50  37  61 S7        30.37F
LARAMIE        CLEAR     56  37  49 N3        30.26S
CASPER         CLEAR     50  44  80 NW8       30.18R
CHEYENNE       CLEAR     55  44  66 N6        30.22S
SCOTTSBLUFF    CLEAR     56  50  80 N6        30.10S
GRAND ISLAND   CLOUDY    64  60  87 N6        30.01R
OMAHA          MOCLDY    67  61  81 SE6       29.91F
SIOUX FALLS    LGT RAIN  64  63  96 E8        29.88F
PIERRE         CLEAR     63  58  83 S8        29.88F
RAPID CITY     CLEAR     61  47  59 W9        30.00S
BISMARCK       PTCLDY    64  58  80 NW9       29.87R
KANSAS CITY    PTCLDY    65  62  90 S6        29.96S
HILL CITY      CLEAR     66  58  75 SW8       29.96F
WICHITA        TSTM      73  63  70 VRB3      30.01R
DODGE CITY     CLOUDY    66  58  75 E5        30.02F
OKLAHOMA CITY  PTCLDY    73  71  93 SE8       29.99F
DALLAS         CLOUDY    77  72  84 SE5       29.97F
AMARILLO       CLEAR     69  64  84 S14       30.08F
$$




USA.gov is the U.S. government's official web portal to all federal, state and local government web resources and services.